Tyler, TX

10:43 AM CDT on October 23, 2017 (GMT -0500)
Tyler Pounds

Weather History for KTYR - January, 2013

Change the Weather History Date:

Monday, January 28, 2013

  Actual Average Record
Temperature  
Mean Temperature 73 °F 47 °F  
Max Temperature 79 °F 57 °F 83 °F (1975)
Min Temperature 67 °F 37 °F 14 °F (1963)
Degree Days  
Heating Degree Days 0 18  
Month to date heating degree days 441 527  
Since 1 July heating degree days 1177 1428  
Cooling Degree Days 8 0  
Month to date cooling degree days 8 0  
Year to date cooling degree days 8 0  
Growing Degree Days 22 (Base 50)    
Moisture  
Dew Point 61 °F    
Average Humidity 68    
Maximum Humidity 87    
Minimum Humidity 48    
Precipitation  
Precipitation T in 0.10 in 1.47 in (2006)
Month to date precipitation 3.18 2.77  
Year to date precipitation 3.18 2.77  
Snow  
Snow 0.00 in - - ()
Month to date snowfall T  
Since 1 July snowfall 1.0  
Snow Depth 0.00 in    
Sea Level Pressure  
Sea Level Pressure 30.00 in    
Wind  
Wind Speed 16 mph (South)    
Max Wind Speed 25 mph    
Max Gust Speed 31 mph    
Visibility 10 miles    
Events      
T = Trace of Precipitation, MM = Missing Value Source: NWS Daily Summary

Daily Weather History Graph

Daily Weather History Graph

Search for Another Location

Airport or City:

Trip Planner

Search our weather history database for the weather conditions in past years. The results will help you decide how hot, cold, wet, or windy it might be!

Date:

Astronomy

Jan. 28, 2013 Rise Set
Actual Time 7:18 AM CST 5:51 PM CST
Civil Twilight 6:52 AM CST 6:17 PM CST
Nautical Twilight 6:22 AM CST 6:47 PM CST
Astronomical Twilight 5:53 AM CST 7:16 PM CST
Moon 7:37 PM CST (1/28) 7:52 AM CST (1/28)
Length of Visible Light 11h 25m
Length of Day
10h 33m
Full, 98% of the Moon is Illuminated
Jan 28
Full
Feb 3
Last Quarter
Feb 10
New
Feb 17
First Quarter
Feb 25
Full

Hourly Weather History & Observations

Time (CST) Temp. Dew Point Humidity Pressure Visibility Wind Dir Wind Speed Gust Speed Precip Events Conditions
12:53 AM 69.1 °F 61.0 °F 75% 30.05 in 10.0 mi South 13.8 mph - N/A   Overcast
1:53 AM 68.0 °F 62.1 °F 81% 30.05 in 10.0 mi South 16.1 mph 23.0 mph 0.00 in   Overcast
2:53 AM 68.0 °F 61.0 °F 78% 30.05 in 10.0 mi South 16.1 mph 24.2 mph N/A   Overcast
3:53 AM 68.0 °F 61.0 °F 78% 30.05 in 10.0 mi South 15.0 mph 21.9 mph N/A   Overcast
4:53 AM 68.0 °F 61.0 °F 78% 30.04 in 10.0 mi South 11.5 mph - N/A   Overcast
5:53 AM 66.9 °F 62.1 °F 84% 30.04 in 10.0 mi South 11.5 mph - N/A   Overcast
6:53 AM 66.9 °F 62.1 °F 84% 30.05 in 10.0 mi South 10.4 mph - N/A   Overcast
7:53 AM 68.0 °F 62.1 °F 81% 30.06 in 10.0 mi South 12.7 mph - N/A   Overcast
8:53 AM 69.1 °F 62.1 °F 78% 30.07 in 10.0 mi South 11.5 mph - N/A   Overcast
9:14 AM 69.8 °F 62.6 °F 78% 30.09 in 10.0 mi South 13.8 mph - N/A   Overcast
9:53 AM 69.1 °F 63.0 °F 81% 30.07 in 10.0 mi South 17.3 mph - N/A   Overcast
10:49 AM 71.6 °F 62.6 °F 73% 30.07 in 10.0 mi South 15.0 mph 25.3 mph N/A   Overcast
10:53 AM 71.1 °F 63.0 °F 75% 30.06 in 10.0 mi South 19.6 mph 27.6 mph N/A   Overcast
11:53 AM 72.0 °F 63.0 °F 73% 30.04 in 10.0 mi South 19.6 mph 26.5 mph N/A   Overcast
12:53 PM 73.0 °F 63.0 °F 71% 30.00 in 10.0 mi South 16.1 mph 23.0 mph N/A   Overcast
1:17 PM 73.4 °F 62.6 °F 69% 30.00 in 10.0 mi South 16.1 mph 26.5 mph N/A   Overcast
1:53 PM 77.0 °F 63.0 °F 62% 29.96 in 10.0 mi South 20.7 mph 26.5 mph N/A   Mostly Cloudy
2:53 PM 77.0 °F 62.1 °F 60% 29.94 in 10.0 mi South 13.8 mph 27.6 mph N/A   Mostly Cloudy
3:53 PM 78.1 °F 60.1 °F 54% 29.92 in 10.0 mi South 18.4 mph 31.1 mph N/A   Overcast
4:53 PM 78.1 °F 57.9 °F 50% 29.91 in 10.0 mi South 16.1 mph 25.3 mph N/A   Overcast
5:53 PM 75.9 °F 57.9 °F 54% 29.91 in 10.0 mi South 11.5 mph - N/A   Overcast
6:53 PM 73.9 °F 57.0 °F 55% 29.93 in 10.0 mi South 18.4 mph 23.0 mph N/A   Mostly Cloudy
7:53 PM 73.0 °F 57.9 °F 59% 29.94 in 10.0 mi SSE 17.3 mph - N/A   Overcast
8:53 PM 71.1 °F 59.0 °F 66% 29.94 in 10.0 mi SSE 18.4 mph 23.0 mph N/A   Overcast
9:53 PM 70.0 °F 61.0 °F 73% 29.94 in 10.0 mi South 17.3 mph 24.2 mph N/A   Overcast
10:53 PM 70.0 °F 62.1 °F 76% 29.93 in 10.0 mi South 16.1 mph - N/A   Overcast
11:03 PM 69.8 °F 62.6 °F 78% 29.94 in 10.0 mi South 13.8 mph - N/A   Overcast
11:40 PM 69.8 °F 62.6 °F 78% 29.93 in 10.0 mi South 19.6 mph 24.2 mph N/A   Overcast
11:53 PM 69.1 °F 62.1 °F 78% 29.91 in 10.0 mi South 16.1 mph 24.2 mph N/A   Overcast